FW1396 Weather Reports


Display with metric or nautical units.
time (UTC)temp
F
wind
direction
speed
MPH
gust
MPH
rain 1hr
in
rain 24hr
in
rain mn
in
humidity
%
barometer
mb
20260510153234 70 137 4.0 7.0 0.00 0.00 0.00 66 1001.2
20260510152736 69 42 4.0 10.0 0.00 0.00 0.00 66 1001.2
20260510152236 69 100 5.0 10.0 0.00 0.00 0.00 65 1001.2
20260510151735 70 94 2.0 4.0 0.00 0.00 0.00 67 1001.2
20260510151235 70 94 2.0 5.0 0.00 0.00 0.00 67 1001.1
20260510150735 70 4 3.0 6.0 0.00 0.00 0.00 67 1000.9
20260510150234 69 31 3.0 9.0 0.00 0.00 0.00 68 1000.9
20260510150006 69 76 4.0 9.0 0.00 0.00 0.00 69 1000.8
20260510145239 68 82 4.0 6.0 0.00 0.00 0.00 71 1000.8
20260510144733 68 82 4.0 6.0 0.00 0.00 0.00 71 1000.7
20260510144237 68 90 5.0 6.0 0.00 0.00 0.00 77 1000.7
20260510144003 67 80 5.0 7.0 0.00 0.00 0.00 77 1000.7
20260510142730 65 85 2.0 6.0 0.00 0.00 0.00 80 1000.5
20260510142232 65 45 2.0 6.0 0.00 0.00 0.00 84 1000.4
20260510141730 64 220 1.0 3.0 0.00 0.00 0.00 88 1000.3
20260510141230 63 220 3.0 3.0 0.00 0.00 0.00 88 1000.3
20260510140730 62 220 1.0 4.0 0.00 0.00 0.00 88 1000.2
20260510140231 62 220 2.0 4.0 0.00 0.00 0.00 89 1000.1
20260510135730 61 275 0.0 2.0 0.00 0.00 0.00 92 1000.0
20260510135230 60 303 0.0 1.0 0.00 0.00 0.00 92 999.9
20260510134731 60 303 0.0 1.0 0.00 0.00 0.00 94 999.8
20260510134231 59 303 0.0 1.0 0.00 0.00 0.00 94 999.9
20260510133730 58 303 0.0 2.0 0.00 0.00 0.00 94 999.9
20260510133231 58 303 0.0 2.0 0.00 0.00 0.00 94 999.9
20260510132729 58 303 2.0 2.0 0.00 0.00 0.00 95 999.8
20260510132500 57 303 0.0 2.0 0.00 0.00 0.00 95 999.8
20260510131731 57 303 1.0 2.0 0.00 0.00 0.00 95 999.7
20260510131500 56 259 0.0 1.0 0.00 0.00 0.00 95 999.7
20260510130729 56 259 0.0 1.0 0.00 0.00 0.00 95 999.5
20260510130228 56 259 0.0 2.0 0.00 0.00 0.00 95 999.4
20260510125729 56 259 1.0 2.0 0.00 0.00 0.00 95 999.4
20260510125229 56 259 0.0 2.0 0.00 0.00 0.00 95 999.5
20260510124734 56 259 1.0 2.0 0.00 0.00 0.00 95 999.5
20260510124228 55 233 0.0 1.0 0.00 0.00 0.00 95 999.4
20260510123959 55 231 0.0 1.0 0.00 0.00 0.00 95 999.4
20260510123227 55 231 0.0 1.0 0.00 0.00 0.00 95 999.3
20260510122727 55 231 1.0 1.0 0.00 0.00 0.00 95 999.1
20260510122227 55 228 0.0 1.0 0.00 0.00 0.00 95 999.0
20260510121725 55 90 0.0 0.0 0.00 0.00 0.00 95 999.0
20260510121226 54 90 0.0 1.0 0.00 0.00 0.00 95 998.9
20260510120956 54 90 0.0 1.0 0.00 0.00 0.00 95 999.0
20260510120225 54 90 0.0 1.0 0.00 0.00 0.00 95 999.0
20260510115725 54 90 0.0 1.0 0.00 0.00 0.00 95 998.9
20260510115225 54 90 0.0 1.0 0.00 0.00 0.00 95 998.8
20260510114727 54 90 0.0 1.0 0.00 0.00 0.00 95 998.7
20260510114225 54 90 0.0 1.0 0.00 0.00 0.00 95 998.6
20260510113723 53 124 0.0 0.0 0.00 0.00 0.00 94 998.6
20260510113224 53 124 0.0 2.0 0.00 0.01 0.00 94 998.3
20260510112953 53 34 0.0 2.0 0.00 0.01 0.00 94 998.1
20260510112222 53 34 1.0 2.0 0.00 0.01 0.00 94 998.1
20260510111722 53 34 0.0 1.0 0.00 0.01 0.00 94 997.9
20260510111222 53 34 0.0 1.0 0.00 0.01 0.00 94 998.0
20260510110724 53 34 0.0 0.0 0.00 0.01 0.00 94 997.8
20260510110223 53 34 0.0 0.0 0.00 0.01 0.00 94 997.9
20260510105723 53 87 0.0 1.0 0.00 0.01 0.00 94 997.9
20260510105224 53 86 0.0 1.0 0.00 0.01 0.00 94 997.8
20260510104724 53 86 0.0 0.0 0.00 0.01 0.00 94 997.9
20260510104221 53 86 0.0 0.0 0.00 0.01 0.00 94 997.8
20260510103720 53 86 0.0 0.0 0.00 0.01 0.00 94 997.7
20260510103221 53 86 0.0 0.0 0.00 0.01 0.00 94 997.6
20260510102721 53 86 0.0 0.0 0.00 0.01 0.00 94 997.5
20260510102220 53 86 0.0 0.0 0.00 0.01 0.00 93 997.4
20260510101720 53 86 0.0 0.0 0.00 0.01 0.00 93 997.3
20260510101220 53 86 0.0 0.0 0.00 0.01 0.00 93 997.3
20260510100719 53 86 0.0 0.0 0.00 0.01 0.00 93 997.2
20260510100220 53 86 0.0 0.0 0.00 0.01 0.00 93 997.2
20260510095952 53 86 0.0 0.0 0.00 0.01 0.00 93 997.2
20260510095218 53 86 0.0 0.0 0.00 0.01 0.00 93 997.1
20260510094718 53 86 0.0 0.0 0.00 0.01 0.00 93 997.2
20260510094218 53 86 0.0 0.0 0.00 0.01 0.00 93 997.1
20260510093718 53 86 0.0 0.0 0.00 0.01 0.00 93 997.0
20260510093449 53 86 0.0 1.0 0.00 0.01 0.00 93 997.1
20260510092717 53 86 0.0 1.0 0.00 0.01 0.00 93 997.1
20260510092217 53 86 0.0 1.0 0.00 0.01 0.00 93 997.2
20260510091716 53 86 0.0 2.0 0.00 0.01 0.00 93 997.2
20260510091216 53 86 0.0 2.0 0.00 0.01 0.00 93 997.3
20260510090717 53 86 0.0 0.0 0.00 0.01 0.00 93 997.3
20260510090217 53 86 0.0 0.0 0.00 0.01 0.00 93 997.4
20260510085716 53 86 0.0 0.0 0.00 0.01 0.00 93 997.5
20260510085217 53 86 0.0 0.0 0.00 0.01 0.00 93 997.5
20260510084717 53 86 0.0 0.0 0.00 0.01 0.00 93 997.6
20260510083947 53 86 0.0 0.0 0.00 0.01 0.00 93 997.4
20260510083215 53 86 0.0 1.0 0.00 0.01 0.00 93 997.3
20260510082717 54 86 0.0 1.0 0.00 0.01 0.00 93 997.1
20260510082216 54 86 0.0 2.0 0.00 0.01 0.00 93 997.1
20260510081717 54 86 0.0 2.0 0.00 0.01 0.00 92 996.9
20260510081446 54 86 1.0 2.0 0.00 0.01 0.00 92 996.7
20260510080715 54 86 0.0 2.0 0.00 0.01 0.00 92 996.8
20260510080216 54 86 0.0 2.0 0.00 0.01 0.00 92 996.7
20260510075716 54 86 0.0 0.0 0.00 0.01 0.00 92 996.7
20260510075446 54 86 0.0 1.0 0.00 0.01 0.00 92 996.8
20260510073714 54 86 0.0 2.0 0.00 0.01 0.00 92 996.6
20260510073214 54 86 0.0 0.0 0.00 0.01 0.00 92 996.7
20260510072713 54 86 0.0 0.0 0.00 0.01 0.00 92 996.6
20260510072213 54 86 0.0 0.0 0.00 0.01 0.00 92 996.4
20260510071712 54 86 0.0 0.0 0.00 0.01 0.00 92 996.3
20260510071441 54 86 0.0 0.0 0.00 0.01 0.00 92 996.2
20260510070711 55 86 0.0 0.0 0.00 0.01 0.00 92 996.2
20260510070212 55 86 0.0 0.0 0.00 0.01 0.00 91 996.3
20260510065944 55 86 0.0 0.0 0.00 0.01 0.00 91 996.2
20260510065211 55 86 0.0 0.0 0.00 0.01 0.00 91 996.3
20260510064709 55 86 0.0 0.0 0.00 0.01 0.00 91 996.4
20260510064210 55 86 0.0 0.0 0.00 0.01 0.00 91 996.4
20260510063712 55 86 0.0 0.0 0.00 0.01 0.00 91 996.5
20260510063211 55 86 0.0 0.0 0.00 0.01 0.00 91 996.4
20260510062941 55 86 0.0 0.0 0.00 0.01 0.00 90 996.3
20260510062211 55 86 0.0 0.0 0.00 0.01 0.00 90 996.3
20260510061708 56 86 0.0 0.0 0.00 0.01 0.00 90 996.3
20260510061208 56 86 0.0 0.0 0.00 0.01 0.00 90 996.2
20260510060708 56 86 0.0 0.0 0.00 0.01 0.00 90 996.3
20260510060207 56 86 0.0 0.0 0.00 0.01 0.00 90 996.2
20260510055708 56 86 0.0 0.0 0.00 0.01 0.00 90 996.2
20260510055205 56 86 0.0 0.0 0.00 0.01 0.00 90 996.4
20260510054704 56 86 0.0 0.0 0.00 0.01 0.00 90 996.5
20260510054206 56 86 0.0 0.0 0.00 0.01 0.00 90 996.6
20260510053705 0 86 0.0 0.0 0.00 0.01 0.00 996.6
20260510053437 57 86 0.0 0.0 0.00 0.01 0.00 89 996.5
20260510052705 57 86 0.0 0.0 0.00 0.01 0.00 89 996.3
20260510052204 57 86 0.0 0.0 0.00 0.01 0.00 89 996.2
20260510051937 57 86 0.0 0.0 0.00 0.01 0.00 89 996.0
20260510051204 57 86 0.0 0.0 0.00 0.01 0.00 89 996.1
20260510050703 57 86 0.0 0.0 0.00 0.01 0.00 89 995.9
20260510050202 58 86 0.0 0.0 0.00 0.02 0.00 88 995.8
20260510045708 58 86 0.0 0.0 0.00 0.02 0.02 88 995.9
20260510045203 58 86 0.0 0.0 0.00 0.09 0.02 88 995.7
20260510044703 58 86 0.0 0.0 0.00 0.09 0.02 88 995.8
20260510044202 58 86 0.0 0.0 0.00 0.09 0.02 88 995.9
20260510043700 58 86 0.0 0.0 0.00 0.09 0.02 87 995.9
20260510043204 59 86 0.0 0.0 0.00 0.09 0.02 87 995.9
20260510042702 59 86 0.0 0.0 0.00 0.09 0.02 87 995.9
20260510042434 59 86 0.0 0.0 0.00 0.09 0.02 87 995.7
20260510041659 59 86 0.0 0.0 0.00 0.09 0.02 87 995.6
20260510041201 60 86 0.0 0.0 0.00 0.09 0.02 86 995.6
20260510040659 60 86 0.0 0.0 0.00 0.09 0.02 86 995.7
20260510040159 60 86 0.0 0.0 0.00 0.09 0.02 86 995.7
20260510035701 60 86 0.0 0.0 0.00 0.09 0.02 86 995.6
20260510035200 60 86 0.0 0.0 0.00 0.09 0.02 86 995.6
20260510034659 61 86 0.0 0.0 0.00 0.09 0.02 85 995.6
20260510034159 61 86 0.0 0.0 0.00 0.09 0.02 85 995.5
20260510033657 61 86 0.0 0.0 0.00 0.09 0.02 85 995.5
20260510033431 61 86 0.0 0.0 0.00 0.09 0.02 85 995.5
20260510032658 61 86 0.0 0.0 0.00 0.09 0.02 85 995.4
20260510032159 61 86 0.0 0.0 0.00 0.09 0.02 85 995.4
20260510031657 61 86 0.0 0.0 0.00 0.09 0.02 85 995.3
20260510031159 62 86 0.0 0.0 0.00 0.09 0.02 85 995.3
20260510030658 62 86 0.0 3.0 0.00 0.09 0.02 85 995.2
20260510030157 62 86 0.0 3.0 0.00 0.09 0.02 85 995.2
20260510025657 62 86 1.0 3.0 0.00 0.09 0.02 85 995.2
20260510025429 62 86 2.0 3.0 0.00 0.09 0.02 84 995.0
20260510024926 62 86 2.0 4.0 0.00 0.09 0.02 84 994.9
20260510024157 63 86 2.0 4.0 0.00 0.09 0.02 84 994.9
20260510023157 63 86 2.0 3.0 0.00 0.09 0.02 83 994.8
20260510022929 63 86 2.0 3.0 0.00 0.09 0.02 83 994.7
20260510022428 64 86 2.0 3.0 0.00 0.09 0.02 83 994.6
20260510021656 64 86 2.0 4.0 0.00 0.09 0.02 82 994.5
20260510021155 64 86 3.0 4.0 0.00 0.09 0.02 82 994.4
20260510020656 65 75 1.0 3.0 0.00 0.09 0.02 81 994.4
20260510020155 65 75 1.0 3.0 0.00 0.09 0.02 81 994.3
20260510015655 65 75 1.0 2.0 0.00 0.09 0.02 81 994.3
20260510015154 66 75 1.0 2.0 0.00 0.09 0.02 80 994.2
20260510014655 67 71 0.0 2.0 0.00 0.09 0.02 79 994.2
20260510014154 67 71 0.0 2.0 0.00 0.09 0.02 79 994.0
20260510013654 67 71 2.0 2.0 0.00 0.09 0.02 79 994.0
20260510013154 67 71 1.0 2.0 0.00 0.09 0.02 78 993.9
20260510012653 68 71 0.0 2.0 0.00 0.09 0.02 77 993.9
20260510012153 68 71 0.0 2.0 0.00 0.09 0.02 77 993.8
20260510011653 69 71 1.0 2.0 0.00 0.09 0.02 76 993.7
20260510011152 69 71 2.0 3.0 0.00 0.09 0.02 75 993.6
20260510010652 69 71 2.0 3.0 0.00 0.09 0.02 75 993.6
20260510010153 70 71 1.0 3.0 0.00 0.09 0.02 72 993.4
20260510005652 71 71 2.0 3.0 0.00 0.09 0.02 72 993.3
20260510005152 71 71 2.0 3.0 0.00 0.09 0.02 71 993.4
20260510004924 72 71 2.0 3.0 0.00 0.09 0.02 69 993.3
20260510004423 73 71 2.0 3.0 0.00 0.09 0.02 67 993.2
20260510003652 74 71 2.0 3.0 0.00 0.09 0.02 66 993.0
20260510003150 75 69 2.0 3.0 0.00 0.09 0.02 63 993.0
20260510002653 76 69 2.0 3.0 0.00 0.09 0.02 59 992.9
20260510002152 77 69 2.0 2.0 0.00 0.09 0.02 56 992.8
20260510001652 78 71 0.0 2.0 0.00 0.09 0.02 54 992.8
20260510001424 79 69 1.0 2.0 0.00 0.09 0.02 50 992.8
20260510000651 80 71 0.0 1.0 0.00 0.09 0.02 47 992.8
20260510000422 80 69 0.0 1.0 0.00 0.09 0.02 45 992.8
20260509235650 80 71 0.0 2.0 0.00 0.09 0.02 44 992.8
20260509235151 81 283 1.0 2.0 0.00 0.09 0.02 42 992.7
20260509234652 81 283 0.0 1.0 0.00 0.09 0.02 41 992.7
20260509234151 82 283 0.0 1.0 0.00 0.09 0.02 41 992.6
20260509233652 82 283 0.0 1.0 0.00 0.09 0.02 40 992.8
20260509233151 82 312 1.0 1.0 0.00 0.09 0.02 39 992.7
20260509232650 82 312 1.0 1.0 0.00 0.09 0.02 39 992.8
20260509232150 83 312 0.0 1.0 0.00 0.09 0.02 41 992.8
20260509231649 83 312 0.0 1.0 0.00 0.09 0.02 41 992.8
20260509231149 83 312 0.0 0.0 0.00 0.09 0.02 41 992.7
20260509230649 83 18 0.0 1.0 0.00 0.09 0.02 39 992.8
20260509230147 83 18 0.0 1.0 0.00 0.09 0.02 39 992.6
20260509225648 83 18 0.0 1.0 0.00 0.09 0.02 37 992.6
20260509225147 83 18 0.0 2.0 0.00 0.09 0.02 37 992.5
20260509224645 83 18 1.0 2.0 0.00 0.09 0.02 37 992.5
20260509224145 0 18 1.0 1.0 0.00 0.09 0.02 992.5
20260509223647 83 18 1.0 2.0 0.00 0.09 0.02 33 992.4
20260509223415 83 54 1.0 3.0 0.00 0.09 0.02 33 992.4
20260509222644 83 54 2.0 3.0 0.00 0.09 0.02 34 992.4
20260509222144 83 0 0.0 2.0 0.00 0.09 0.02 35 992.4
20260509221644 83 25 1.0 3.0 0.00 0.09 0.02 35 992.4
20260509221143 83 87 2.0 3.0 0.00 0.09 0.02 36 992.5
20260509220642 83 264 1.0 4.0 0.00 0.09 0.02 36 992.3
20260509220411 83 264 1.0 4.0 0.00 0.09 0.02 36 992.4
20260509215910 83 188 2.0 4.0 0.00 0.09 0.02 35 992.4
20260509215140 83 235 2.0 4.0 0.00 0.09 0.02 35 992.4
20260509214640 83 231 1.0 3.0 0.00 0.09 0.02 36 992.4
20260509214140 0 0.0 0.0 0.00 0.09 0.02 992.4
20260509213639 0 0.0 0.0 0.00 0.09 0.02 992.3
20260509213139 0 0.0 0.0 0.00 0.09 0.02 992.4
20260509212135 0 0.0 0.0 0.00 0.09 0.02 992.4
20260509211635 83 254 3.0 4.0 0.00 0.09 0.02 38 992.5
20260509211404 83 254 3.0 4.0 0.00 0.09 0.02 38 992.5
20260509210633 0 276 3.0 3.0 0.00 0.09 0.02 992.6
20260509210133 0 0.0 0.0 0.00 0.09 0.02 992.6
20260509205631 0 0.0 0.0 0.00 0.09 0.02 992.6
20260509205130 0 0.0 0.0 0.00 0.09 0.02 992.7
20260509204629 0 0.0 0.0 0.00 0.09 0.02 992.7
20260509204128 0 0.0 0.0 0.00 0.09 0.02 992.7
20260509203627 0 0.0 0.0 0.00 0.09 0.02 992.8
20260509203125 0 0.0 0.0 0.00 0.09 0.02 992.8
20260509202624 84 281 4.0 10.0 0.00 0.09 0.02 37 992.9
20260509202124 84 281 4.0 10.0 0.00 0.09 0.02 37 992.9
20260509201624 84 293 1.0 5.0 0.00 0.09 0.02 40 993.0
20260509201125 84 245 1.0 5.0 0.00 0.09 0.02 37 993.0
20260509200854 84 292 1.0 3.0 0.00 0.09 0.02 37 993.2
20260509200124 83 224 2.0 7.0 0.00 0.09 0.02 41 993.2
20260509195854 83 31 3.0 7.0 0.00 0.09 0.02 41 993.3
20260509195122 83 264 5.0 6.0 0.00 0.09 0.02 38 993.3
20260509194622 83 251 3.0 3.0 0.00 0.09 0.02 44 993.3
20260509194122 0 219 4.0 4.0 0.00 0.09 0.02 993.4
20260509193621 0 219 4.0 4.0 0.00 0.09 0.02 993.2
20260509193121 0 0.0 0.0 0.00 0.09 0.02 993.4
20260509192619 83 207 4.0 5.0 0.00 0.09 0.02 44 993.5
20260509192121 83 207 4.0 6.0 0.00 0.09 0.02 44 993.5
20260509191618 0 214 6.0 6.0 0.00 0.09 0.02 993.5
20260509191117 0 16 2.0 4.0 0.00 0.09 0.02 993.6
20260509190617 82 102 2.0 4.0 0.00 0.09 0.02 47 993.6
20260509190116 82 128 2.0 4.0 0.00 0.09 0.02 47 993.6
20260509185853 82 13 3.0 4.0 0.00 0.09 0.02 48 993.6
20260509185117 81 82 1.0 7.0 0.00 0.09 0.02 47 993.6
20260509184617 81 18 5.0 7.0 0.00 0.09 0.02 50 993.6
20260509184117 81 351 2.0 5.0 0.00 0.09 0.02 47 993.6
20260509183615 81 224 2.0 7.0 0.00 0.09 0.02 47 993.6
20260509183116 81 248 5.0 7.0 0.00 0.09 0.02 55 993.6
20260509182615 0 0.0 0.0 0.00 0.09 0.02 993.6
20260509182114 80 238 1.0 7.0 0.00 0.09 0.02 55 993.7
20260509181613 80 238 1.0 7.0 0.00 0.09 0.02 55 993.6
20260509181117 80 276 2.0 4.0 0.00 0.09 0.02 55 993.8
20260509180613 80 221 2.0 3.0 0.00 0.09 0.02 55 993.7
20260509180344 80 182 2.0 3.0 0.00 0.09 0.02 62 993.8
20260509175613 0 180 2.0 3.0 0.00 0.09 0.02 993.9
20260509175112 0 180 2.0 3.0 0.00 0.09 0.02 993.9
20260509174612 78 197 2.0 3.0 0.00 0.09 0.02 63 993.9
20260509174113 78 197 2.0 3.0 0.00 0.09 0.02 63 993.9
20260509173842 76 188 2.0 5.0 0.00 0.09 0.02 66 994.0
20260509173110 76 188 2.0 5.0 0.00 0.09 0.02 66 994.1
20260509172610 76 199 3.0 5.0 0.00 0.09 0.02 68 994.1
20260509172109 0 78 2.0 2.0 0.00 0.09 0.02 994.1
20260509171609 0 78 2.0 2.0 0.00 0.09 0.02 994.1
20260509171109 74 237 0.0 0.0 0.00 0.09 0.02 72 994.1
20260509170607 74 237 0.0 0.0 0.00 0.09 0.02 72 994.2
20260509170108 74 206 2.0 3.0 0.00 0.09 0.02 72 994.2
20260509165606 74 206 2.0 6.0 0.00 0.09 0.02 72 994.2
20260509165106 74 248 4.0 6.0 0.00 0.09 0.02 74 994.2
20260509164606 73 171 2.0 4.0 0.00 0.09 0.02 74 994.2
20260509164105 73 237 0.0 2.0 0.00 0.09 0.02 77 994.3
20260509163605 71 230 1.0 3.0 0.00 0.09 0.02 77 994.3
20260509163104 71 230 2.0 3.0 0.00 0.09 0.02 77 994.3
20260509162605 0 0.0 0.0 0.00 0.09 0.02 994.4
20260509162103 69 212 5.0 6.0 0.00 0.09 0.02 85 994.4
20260509161602 69 212 5.0 6.0 0.00 0.09 0.02 85 994.4
20260509161102 69 217 5.0 6.0 0.00 0.09 0.02 88 994.5
20260509160603 67 250 2.0 3.0 0.00 0.09 0.02 89 994.4
20260509160333 67 250 2.0 4.0 0.00 0.09 0.02 89 994.5
20260509155600 67 250 3.0 4.0 0.00 0.09 0.02 88 994.4
20260509155100 67 164 2.0 3.0 0.00 0.09 0.02 90 994.4
20260509154604 66 18 0.0 4.0 0.00 0.09 0.02 93 994.4
20260509154100 65 30 1.0 4.0 0.00 0.09 0.02 93 994.3
20260509153833 64 111 1.0 4.0 0.00 0.09 0.02 96 994.4